Find Starlink 32460

NORAD ID: 61914 Int'l Des: 2024-207 Owner: SPXS Country: US Constellation: starlink operational
LEOCIRCULAR

当前视图

正在加载3D地球...

About Starlink 32460

Starlink 32460 (NORAD 61914) is a starlink constellation satellite (v2 mini) launched Nov 11, 2024 by SPXS of US. It operates in LEO, CIRCULAR orbit with a mass of 730.00 kg.

即将过境

Passes for default location (London). Set your location on the main map for personalized predictions.

高度历史

Loading altitude history...

两行轨道根数

1 61914U 24207C 26262.73498464 .00013867 00000-0 51238-3 0 9996
2 61914 43.0043 265.4640 0001807 277.3351 82.7295 15.27586971104401
Epoch: Sep 19, 2026 • Age: 30 hours

当前状态

高度 489.1 km
远地点 / 近地点 N/A
速度 7.62 km/s
星下点 -28.00°S, 124.9°W
发射日期 Nov 11, 2024
运行时间 1.8 years
类型 internet

技术详情

分类 Payload
质量 730.00 kg
干质量 700.00 kg
长度 0.30 m
跨度 29.00 m
形状 ? Box + pan
制造商 SPXS
平台类型 Starlink V2M
阶段状态 In Orbit
所有者/国家 SPXS/US

Most Searched